Minneapolis Flying Cloud, MN

12:10 PM CST on November 22, 2019 (GMT -0600)
Flying Cloud

Weather History for KFCM - September, 2019

Change the Weather History Date:

Monday, September 2, 2019

  Actual Average Record
Temperature  
Mean Temperature 69 °F -  
Max Temperature 75 °F 78 °F 90 °F (1999)
Min Temperature 63 °F 57 °F 48 °F (1998)
Cooling Degree Days 4    
Growing Degree Days 19 (Base 50)    
Moisture  
Dew Point 63 °F    
Average Humidity 78    
Maximum Humidity 90    
Minimum Humidity 62    
Precipitation  
Precipitation 0.29 in - - ()
Sea Level Pressure  
Sea Level Pressure 29.98 in    
Wind  
Wind Speed 6 mph (ENE)    
Max Wind Speed 15 mph    
Max Gust Speed 18 mph    
Visibility 9 miles    
Events Rain , Thunderstorm    
Averages and records for this station are not official NWS values.
T = Trace of Precipitation, MM = Missing Value Source: NWS Daily Summary

Daily Weather History Graph

Daily Weather History Graph

Search for Another Location

Airport or City:

Astronomy

Sep. 02, 2019 Rise Set
Actual Time 6:37 AM CDT 7:49 PM CDT
Civil Twilight 6:06 AM CDT 8:19 PM CDT
Nautical Twilight 5:30 AM CDT 8:55 PM CDT
Astronomical Twilight 4:52 AM CDT 9:33 PM CDT
Moon 10:28 AM CDT (9/2) 10:01 PM CDT (9/2)
Length of Visible Light 14h 12m
Length of Day
13h 12m
Waxing Crescent, 15% of the Moon is Illuminated
Sep 2
Waxing Crescent
Sep 5
First Quarter
Sep 13
Full
Sep 21
Last Quarter
Sep 28
New

Hourly Weather History & Observations

Time (CDT) Temp. Dew Point Humidity Pressure Visibility Wind Dir Wind Speed Gust Speed Precip Events Conditions
12:04 AM 66.9 °F 62.1 °F 84% 30.05 in 10.0 mi NNE 4.6 mph - N/A   Mostly Cloudy
12:53 AM 66.9 °F 62.1 °F 84% 30.06 in 10.0 mi North 4.6 mph - N/A   Overcast
1:53 AM 66.9 °F 62.1 °F 84% 30.06 in 10.0 mi Calm Calm - N/A   Mostly Cloudy
2:53 AM 66.9 °F 62.1 °F 84% 30.06 in 10.0 mi Calm Calm - N/A   Overcast
3:53 AM 66.9 °F 62.1 °F 84% 30.06 in 10.0 mi Calm Calm - N/A   Overcast
4:29 AM 66.0 °F 62.1 °F 87% 30.08 in 10.0 mi Calm Calm - N/A   Overcast
4:53 AM 66.0 °F 62.1 °F 87% 30.07 in 10.0 mi North 3.5 mph - N/A   Overcast
5:53 AM 64.9 °F 61.0 °F 87% 30.08 in 9.0 mi NNW 3.5 mph - N/A   Partly Cloudy
6:53 AM 63.0 °F 60.1 °F 90% 30.10 in 8.0 mi NNE 4.6 mph - N/A   Clear
7:53 AM 64.9 °F 60.1 °F 84% 30.11 in 10.0 mi NNE 4.6 mph - N/A   Mostly Cloudy
8:30 AM 64.9 °F 60.1 °F 84% 30.11 in 10.0 mi NNE 8.1 mph - N/A   Mostly Cloudy
8:37 AM 64.9 °F 60.1 °F 84% 30.11 in 10.0 mi NNE 8.1 mph - N/A   Mostly Cloudy
8:53 AM 64.9 °F 60.1 °F 84% 30.11 in 10.0 mi NE 8.1 mph - N/A   Mostly Cloudy
9:37 AM 66.9 °F 60.1 °F 79% 30.10 in 10.0 mi NNE 8.1 mph - N/A   Partly Cloudy
9:53 AM 68.0 °F 60.1 °F 76% 30.10 in 10.0 mi ENE 4.6 mph - N/A   Clear
10:39 AM 69.1 °F 60.1 °F 73% 30.10 in 10.0 mi ENE 5.8 mph - N/A   Mostly Cloudy
10:53 AM 70.0 °F 61.0 °F 73% 30.09 in 10.0 mi ENE 6.9 mph - N/A   Mostly Cloudy
11:33 AM 70.0 °F 60.1 °F 71% 30.10 in 10.0 mi ENE 5.8 mph - N/A   Scattered Clouds
11:53 AM 71.1 °F 61.0 °F 70% 30.09 in 10.0 mi NE 6.9 mph - N/A   Mostly Cloudy
12:53 PM 73.0 °F 60.1 °F 64% 30.08 in 10.0 mi Variable 4.6 mph - N/A   Mostly Cloudy
1:53 PM 73.0 °F 61.0 °F 66% 30.05 in 10.0 mi ENE 10.4 mph - N/A   Mostly Cloudy
2:00 PM 73.0 °F 61.0 °F 66% 30.05 in 10.0 mi ENE 9.2 mph - N/A   Scattered Clouds
2:53 PM 75.0 °F 61.0 °F 62% 30.02 in 10.0 mi ESE 5.8 mph - N/A   Partly Cloudy
3:16 PM 73.9 °F 60.1 °F 62% 30.02 in 10.0 mi East 8.1 mph - N/A   Mostly Cloudy
3:23 PM 73.9 °F 60.1 °F 62% 30.02 in 10.0 mi Variable 5.8 mph - N/A   Mostly Cloudy
3:53 PM 75.0 °F 62.1 °F 64% 30.00 in 10.0 mi ENE 8.1 mph - N/A   Mostly Cloudy
4:53 PM 75.9 °F 62.1 °F 62% 29.97 in 10.0 mi East 6.9 mph - N/A   Mostly Cloudy
5:53 PM 73.9 °F 62.1 °F 66% 29.94 in 10.0 mi East 9.2 mph - N/A   Mostly Cloudy
6:53 PM 73.9 °F 63.0 °F 68% 29.90 in 10.0 mi ESE 12.7 mph - N/A   Overcast
7:53 PM 73.9 °F 63.0 °F 68% 29.87 in 10.0 mi ESE 10.4 mph - N/A   Overcast
8:53 PM 73.0 °F 64.0 °F 73% 29.82 in 10.0 mi SE 15.0 mph - N/A   Overcast
9:46 PM 73.0 °F 64.9 °F 76% 29.78 in 10.0 mi SE 15.0 mph - N/A   Overcast
9:53 PM 73.0 °F 64.9 °F 76% 29.78 in 10.0 mi SSE 13.8 mph - N/A   Overcast
10:06 PM 73.0 °F 66.0 °F 79% 29.82 in 10.0 mi SSE 10.4 mph - N/A Thunderstorm Overcast
10:20 PM 73.9 °F 66.9 °F 79% 29.85 in 9.0 mi South 9.2 mph - 0.00 in Rain , Thunderstorm Light Thunderstorms and Rain
10:32 PM 72.0 °F 68.0 °F 87% 29.87 in 1.8 mi Variable 5.8 mph - 0.18 in Rain , Thunderstorm Heavy Thunderstorms and Rain
10:43 PM 71.1 °F 68.0 °F 90% 29.84 in 2.0 mi ENE 5.8 mph - 0.27 in Rain , Thunderstorm Heavy Thunderstorms and Rain
10:53 PM 71.1 °F 68.0 °F 90% 29.82 in 4.0 mi Variable 4.6 mph - 0.29 in Rain , Thunderstorm Light Thunderstorms and Rain
11:00 PM 71.1 °F 68.0 °F 90% 29.82 in 8.0 mi Variable 5.8 mph - 0.00 in Rain , Thunderstorm Light Rain
11:10 PM 71.1 °F 66.9 °F 87% 29.83 in 10.0 mi WSW 12.7 mph 17.3 mph 0.00 in Thunderstorm Thunderstorm
11:32 PM 68.0 °F 64.9 °F 90% 29.85 in 10.0 mi Variable 5.8 mph 18.4 mph 0.00 in   Mostly Cloudy
11:42 PM 66.9 °F 64.0 °F 90% 29.84 in 10.0 mi North 8.1 mph - 0.00 in   Mostly Cloudy
11:53 PM 66.0 °F 63.0 °F 90% 29.83 in 10.0 mi NNE 3.5 mph - 0.00 in   Overcast